Weather History for Lone Rock, WI

Change the Weather History Date:

Sunday, June 16, 2013

  Actual Average Record
Temperature  
Mean Temperature 72 °F -  
Max Temperature 84 °F 76 °F 93 °F (2014)
Min Temperature 62 °F 55 °F 46 °F (1999)
Cooling Degree Days 8    
Growing Degree Days 22 (Base 50)    
Moisture  
Dew Point 61 °F    
Average Humidity 71    
Maximum Humidity 94    
Minimum Humidity 32    
Precipitation  
Precipitation 0.01 in - - ()
Sea Level Pressure  
Sea Level Pressure 29.88 in    
Wind  
Wind Speed 3 mph (WNW)    
Max Wind Speed 12 mph    
Max Gust Speed -    
Visibility 8 miles    
Events Rain , Thunderstorm    
Averages and records for this station are not official NWS values.
T = Trace of Precipitation, MM = Missing Value Source: NWS Daily Summary

Daily Weather History Graph

Daily Weather History Graph

Search for Another Location

Airport:

Trip Planner

Search our weather history database for the weather conditions in past years. The results will help you decide how hot, cold, wet, or windy it might be!

Date:

Astronomy

Jun. 16, 2013 Rise Set
Actual Time 5:20 AM CDT 8:42 PM CDT
Civil Twilight 4:44 AM CDT 9:18 PM CDT
Nautical Twilight 3:58 AM CDT 10:04 PM CDT
Astronomical Twilight 3:00 AM CDT 11:02 PM CDT
Moon 1:08 PM CDT (6/16) 12:36 AM CDT (6/16)
Length of Visible Light 16h 33m
Length of Day
15h 22m
Waxing Crescent, 50% of the Moon is Illuminated
Jun 16
Waxing Crescent
Jun 16
First Quarter
Jun 23
Full
Jun 29
Last Quarter
Jul 8
New

Hourly Weather History & Observations

Time (CDT) Temp. Heat Index Dew Point Humidity Pressure Visibility Wind Dir Wind Speed Gust Speed Precip Events Conditions
12:41 AM 71.6 °F - 66.2 °F 83% 29.88 in 5.0 mi Calm Calm - 0.00 in Rain Light Rain
12:52 AM 71.6 °F - 66.2 °F 83% 29.88 in 8.0 mi Calm Calm - 0.00 in   Overcast
12:56 AM 71.1 °F - 66.9 °F 87% 29.85 in 8.0 mi Calm Calm - 0.00 in Thunderstorm Mostly Cloudy
1:15 AM 71.6 °F - 68.0 °F 88% 29.88 in 6.0 mi Calm Calm - N/A Thunderstorm Mostly Cloudy
1:23 AM 71.6 °F - 68.0 °F 88% 29.88 in 7.0 mi NNW 3.5 mph - N/A Thunderstorm Mostly Cloudy
1:36 AM 71.6 °F - 66.2 °F 83% 29.88 in 7.0 mi Calm Calm - N/A   Overcast
1:56 AM 70.0 °F - 66.9 °F 90% 29.84 in 6.0 mi WSW 3.5 mph - N/A   Overcast
2:33 AM 69.8 °F - 66.2 °F 88% 29.86 in 6.0 mi Calm Calm - N/A   Partly Cloudy
2:56 AM 68.0 °F - 66.0 °F 93% 29.85 in 4.0 mi Calm Calm - N/A   Scattered Clouds
3:05 AM 68.0 °F - 66.2 °F 94% 29.87 in 4.0 mi Calm Calm - N/A   Mostly Cloudy
3:27 AM 69.8 °F - 66.2 °F 88% 29.87 in 5.0 mi West 3.5 mph - N/A   Overcast
3:56 AM 70.0 °F - 66.9 °F 90% 29.85 in 6.0 mi West 4.6 mph - N/A   Overcast
4:56 AM 69.1 °F - 66.0 °F 90% 29.86 in 6.0 mi West 6.9 mph - N/A   Mostly Cloudy
5:37 AM 69.8 °F - 66.2 °F 88% 29.90 in 3.0 mi Calm Calm - N/A   Overcast
5:56 AM 68.0 °F - 66.0 °F 93% 29.88 in 3.0 mi SW 3.5 mph - N/A   Overcast
6:42 AM 68.0 °F - 64.4 °F 88% 29.92 in 4.0 mi Calm Calm - 0.01 in   Scattered Clouds
6:56 AM 69.1 °F - 66.0 °F 90% 29.89 in 5.0 mi West 5.8 mph - 0.01 in   Clear
7:56 AM 71.1 °F - 64.9 °F 81% 29.89 in 9.0 mi WNW 3.5 mph - N/A   Clear
8:56 AM 73.9 °F - 64.0 °F 71% 29.90 in 10.0 mi West 6.9 mph - N/A   Clear
9:56 AM 75.9 °F - 64.9 °F 69% 29.89 in 10.0 mi West 5.8 mph - N/A   Clear
10:56 AM 80.1 °F 80.6 °F 57.9 °F 47% 29.88 in 10.0 mi WNW 9.2 mph - N/A   Clear
11:56 AM 82.0 °F - 52.0 °F 35% 29.88 in 10.0 mi West 11.5 mph - N/A   Clear
12:56 PM 82.9 °F - 51.1 °F 33% 29.88 in 10.0 mi NNW 9.2 mph - N/A   Partly Cloudy
1:56 PM 82.9 °F - 50.0 °F 32% 29.88 in 10.0 mi WNW 9.2 mph - N/A   Clear
2:56 PM 82.9 °F - 51.1 °F 33% 29.88 in 10.0 mi NW 9.2 mph - N/A   Clear
3:56 PM 82.9 °F - 51.1 °F 33% 29.88 in 10.0 mi WNW 6.9 mph - N/A   Clear
4:56 PM 82.9 °F - 52.0 °F 34% 29.87 in 10.0 mi WNW 8.1 mph - N/A   Clear
5:56 PM 82.0 °F - 52.0 °F 35% 29.87 in 10.0 mi WNW 8.1 mph - N/A   Partly Cloudy
6:56 PM 79.0 °F - 51.1 °F 38% 29.86 in 10.0 mi WNW 6.9 mph - N/A   Clear
7:56 PM 78.1 °F - 60.1 °F 54% 29.87 in 10.0 mi Calm Calm - N/A   Clear
8:56 PM 70.0 °F - 57.9 °F 65% 29.86 in 10.0 mi Calm Calm - N/A   Clear
9:56 PM 66.0 °F - 57.0 °F 73% 29.89 in 10.0 mi Calm Calm - N/A   Clear
10:56 PM 63.0 °F - 57.0 °F 81% 29.89 in 10.0 mi Calm Calm - N/A   Clear
11:56 PM 62.1 °F - 57.0 °F 84% 29.89 in 10.0 mi East 3.5 mph - N/A   Clear